星链-2040 (STARLINK-2040 )

导读 | 豆包AI

STARLINK-2040是美国SpaceX公司星链(Starlink)卫星互联网星座中的一颗卫星,于2021年2月16日发射升空。星链项目旨在构建全球覆盖的低轨卫星互联网,为传统网络覆盖不足的偏远地区、以及航空航海移动场景提供高速宽带服务。该卫星属于星链早期组网部署的卫星之一,服务于星座的全球通信网络搭建,助力星链逐步实现从家庭宽带到多场景渗透的扩张,目前星链已在全球155个国家和地区提供服务,拥有数百万用户。

基本信息
目录编号:
47656
目录名称:
STARLINK-2040
国际标识:
2021-012AN
轨道中心:
EARTH
卫星名称:
星链-2040
卫星全名:
星链-2040 (STARLINK-2040 )
卫星状态:
在轨 (已飞行1924 天)
发射日期:
2021-02-16 UTC
国别 :
美国 (US)
星等 :
--
轨道信息
数据来源 国际轨道数据
星历时间: 2026-05-25T10:57:57+0800
7小时前
查看轨道信息
半长轴: 6848.814km
偏心率: 0.0001454
轨道倾角: 53.161°
近地点辐角 108.967°
升交点赤经 54.022°
平近点角 251.149°
近地点: 469.681km
远地点: 471.673km
周期: 94.012分钟
每日圈数: 15.317212
详细信息
固有亮度:
5
最大亮度:
2.5
卫星平台:
Starlink V1.0
覆盖范围:
全球
运营商:
太空探索技术公司
运营商所在国:
美国
制造商(研发单位):
太空探索技术公司
制造商所在国:
美国
使用方式:
暂无
卫星简介
星链(Starlink)计划是由太空探索技术公司(SpaceX)提出的一个巨型低轨卫星互联网星座项目,计划在2019年至2024年间在太空搭建由约1.2万颗卫星组成的“星链”网络,其中1584颗将部署在地球上空550千米处的近地轨道,并从2020年开始工作。该卫星仍在工作。
2D轨道图
3D轨道图
轨道高度分析图
轨道倾角分析图
轨道综合分析图
查看轨道综合分析图